Probability
5 6 6 4 1 0 0 0 0 0 0 0 0 0 0 0 1 1 1 0 0 0 0 0 0 0 0 0 0 0 0 0 0 1 3 2 1 0 0 0 0 0 0 0 0 0 0 0 0
5 4 3 2 1 0 0 0 0 0 0 0 0 0 0 0 0 0 0 0 0 0 0 0 0 0 0 0 0 0 0 0 0 1 2 1 0 0 0 0 0 0 0 0 0 0 0 0 0
4 2 1 1 0 0 0 0 0 0 0 0 0 0 0 0 0 0 0 0 0 0 0 0 0 0 0 0 0 0 0 0 0 0 0 0 0 0 0 0 0 0 0 0 0 1 1 0 0
2 1 1 0 0 0 0 0 0 0 0 0 0 0 1 0 0 0 0 0 0 0 0 0 0 0 0 0 0 0 0 0 0 0 0 0 0 0 0 0 0 0 0 0 0 1 1 0 0
1 1 0 0 0 0 0 0 0 0 0 0 0 0 0 0 0 0 0 0 0 0 0 0 0 0 0 0 0 0 0 0 0 0 0 0 0 0 0 0 0 0 0 0 0 0 0 0 0
0 0 0 0 0 0 0 0 0 0 0 0 0 0 0 1 1 1 0 0 0 0 0 0 0 0 0 0 0 0 0 0 0 0 0 0 0 0 0 0 0 0 0 0 0 0 0 0 0
0 0 0 0 0 0 0 0 0 0 0 0 0 0 0 1 1 1 0 0 0 0 0 0 0 0 0 0 0 0 0 0 0 0 0 0 0 0 0 0 0 0 0 0 1 0 0 0 0
0 0 0 0 0 0 0 0 0 0 0 0 0 0 0 0 0 0 0 0 0 0 0 0 0 0 0 0 0 0 0 0 0 0 0 0 0 0 0 0 0 0 0 0 0 0 0 0 0
0 0 0 0 0 0 0 0 0 0 0 0 0 0 0 0 0 0 0 0 0 0 0 0 0 0 0 0 0 0 0 1 0 0 0 0 0 0 0 0 0 0 0 0 0 0 0 0 0
0 0 0 0 0 0 0 0 0 0 0 0 0 0 0 0 0 0 0 0 0 0 0 0 0 0 0 0 0 0 0 0 0 0 0 0 0 0 0 0 0 0 0 0 0 0 0 0 0
0 0 0 0 0 0 0 0 0 0 0 0 0 0 0 0 0 0 0 0 0 0 0 0 0 0 0 0 0 0 0 0 0 0 0 0 0 0 0 0 0 0 0 0 0 0 0 0 0
0 0 0 0 0 0 0 0 0 0 0 0 0 0 0 0 0 1 1 1 1 1 0 0 1 1 1 1 0 0 0 0 0 0 0 0 0 0 0 0 0 0 0 0 0 0 0 0 0
0 0 0 0 0 0 0 0 0 0 0 0 0 0 0 0 0 0 1 2 3 2 1 1 2 2 2 1 0 0 0 0 0 0 0 0 0 0 0 0 0 0 0 0 0 0 0 0 0
0 0 0 0 0 0 0 0 0 0 0 0 0 0 0 0 0 0 1 2 3 3 2 2 3 2 1 1 0 0 0 0 0 0 0 0 0 0 0 0 0 0 0 0 0 0 0 0 0
0 0 0 0 0 0 0 0 0 0 0 0 0 0 0 0 0 0 1 3 3 3 3 3 3 1 0 0 0 0 0 0 0 0 0 0 0 0 0 0 0 0 0 0 0 0 0 0 0
0 0 0 0 0 0 0 0 0 0 0 0 0 0 0 0 0 1 2 3 3 3 3 2 2 1 0 0 0 0 0 0 0 0 0 0 0 0 0 0 0 0 0 0 0 0 0 0 0
0 0 0 0 0 0 0 0 0 0 0 0 0 0 0 1 1 1 3 3 2 2 1 1 1 0 0 0 0 0 0 0 0 0 0 0 0 0 0 0 0 0 0 0 0 0 0 0 0
0 0 0 0 0 0 0 0 0 0 0 0 0 0 1 2 2 2 3 2 1 0 0 0 0 0 0 0 0 0 0 0 0 0 0 0 0 0 0 0 0 0 0 0 0 0 0 0 0
0 0 0 0 0 0 0 0 0 0 0 0 0 0 1 2 2 2 2 1 0 0 0 0 0 0 0 0 0 0 0 0 0 0 0 0 0 0 0 0 0 0 0 0 0 0 0 0 0
0 0 0 0 0 0 0 0 0 0 0 0 0 0 0 1 1 1 2 1 1 1 1 0 0 0 0 0 0 0 0 0 0 0 0 0 0 0 0 0 0 0 0 0 0 0 0 0 0
0 0 0 0 0 0 0 0 0 0 0 0 0 0 0 0 1 1 2 2 2 2 1 1 1 0 0 0 0 0 0 0 0 0 0 0 0 0 0 0 0 0 0 0 0 0 0 0 0
0 0 0 0 0 0 0 0 0 0 0 0 0 0 0 0 1 1 1 1 1 1 1 2 2 1 0 0 0 0 0 0 0 0 0 0 0 0 0 0 0 0 0 0 0 0 0 0 0
0 0 0 0 0 0 0 0 0 0 0 0 0 0 0 0 1 1 0 0 0 0 0 1 2 2 1 1 0 0 0 0 0 0 0 0 0 0 0 0 0 0 0 0 0 0 0 0 0
0 0 0 0 0 0 0 0 0 0 0 0 0 0 0 0 0 0 0 0 0 0 0 0 1 1 1 1 0 0 0 0 0 0 0 0 0 0 0 0 0 0 0 0 0 0 0 0 0
0 0 0 0 0 0 0 0 0 0 0 0 0 0 0 1 0 0 0 0 0 0 0 0 0 0 1 1 0 0 0 0 0 0 0 0 0 0 0 0 0 0 0 0 0 0 0 0 0
0 0 0 0 0 0 0 0 0 0 0 0 0 0 0 0 0 0 0 0 0 0 0 0 0 0 0 0 0 0 0 0 0 0 0 0 0 0 0 0 0 0 0 0 0 0 0 0 0
0 0 0 0 0 0 0 0 0 0 0 0 0 0 0 0 0 0 0 0 0 0 0 0 0 0 0 0 0 0 0 0 0 0 0 0 0 0 0 0 0 0 0 0 0 0 0 0 0
0 0 0 0 0 0 0 0 0 0 0 0 0 0 0 0 0 0 0 0 1 1 1 0 0 0 0 0 0 0 0 0 0 0 0 0 0 0 0 0 0 0 0 0 0 0 0 0 0
0 0 0 0 0 0 0 0 0 0 0 0 0 0 0 0 1 1 1 0 1 2 1 0 0 0 0 0 0 0 0 0 0 0 0 0 0 0 0 0 0 0 0 0 0 0 0 0 0
0 0 0 0 0 0 0 0 0 0 0 0 0 0 0 1 2 2 1 0 1 1 1 0 0 0 0 0 0 0 0 0 0 0 0 0 0 0 0 0 0 0 0 0 0 0 0 0 0
Wind_Speed
9 10 6 2 2 0 6 7 9 8 8 8 9 10 12 12 9 7 2 4 6 8 8 9 10 10 10 11 10 10 10 10 10 10 9 9 9 10 10 10 10 10 11 10 10 9 9 9 9
9 6 4 3 1 3 7 7 9 9 6 5 8 11 13 11 10 7 3 3 7 8 8 8 9 9 10 10 10 10 10 10 10 10 9 9 9 10 9 9 10 10 10 10 9 9 9 9 9
11 6 3 1 4 5 6 7 7 7 6 7 8 11 10 7 8 5 3 5 7 9 9 8 9 9 9 9 9 9 9 10 10 9 9 9 9 9 9 9 9 9 9 10 9 9 9 9 9
5 3 3 2 8 9 7 6 5 7 7 8 9 10 10 9 6 6 5 7 8 8 9 8 9 9 8 8 9 9 9 9 9 9 9 9 9 9 8 9 9 10 10 9 10 10 10 9 9
4 3 1 5 8 8 6 6 7 8 8 10 11 12 10 8 8 7 6 8 8 8 8 9 9 9 9 8 9 9 9 9 9 9 9 9 9 9 8 8 9 9 9 9 9 10 10 9 9
3 2 2 6 8 7 7 8 8 9 9 9 10 11 8 8 7 5 6 7 7 7 8 9 10 9 8 9 9 9 9 9 8 9 9 9 9 8 8 8 9 9 9 9 9 9 9 9 8
3 1 4 6 6 7 8 8 8 8 9 8 7 10 9 8 6 5 6 6 6 6 7 8 8 8 9 9 9 8 8 8 7 7 7 7 8 8 8 8 9 9 9 9 9 8 8 8 7
3 1 4 5 6 7 7 8 8 9 8 6 7 8 8 9 7 6 5 5 5 5 5 6 6 7 8 7 8 8 7 7 6 6 6 6 7 7 8 8 8 9 8 8 8 7 7 6 6
3 2 4 5 5 6 6 6 6 6 8 9 11 12 11 11 9 7 5 5 5 5 5 4 5 5 6 7 8 7 7 6 6 5 5 5 3 4 5 8 8 8 7 7 6 6 6 5 3
2 4 6 6 6 5 6 6 5 5 8 9 11 12 12 9 8 6 6 6 5 4 4 4 4 5 6 5 5 3 4 4 3 3 3 2 3 3 5 6 7 7 5 4 4 4 3 2 1
5 5 6 7 6 5 5 5 5 5 6 6 8 11 9 7 7 6 6 6 4 5 4 4 4 5 6 4 4 2 2 2 2 3 3 3 3 3 3 2 3 3 3 1 2 1 1 1 2
5 6 6 6 5 4 4 5 5 5 6 7 9 10 8 6 6 6 6 6 4 5 5 4 4 4 6 5 3 3 2 2 2 2 3 3 2 2 1 1 2 2 1 1 1 1 2 2 3
5 5 5 5 4 3 4 4 4 5 6 7 9 9 7 7 7 6 7 6 6 5 4 5 4 5 5 4 2 3 3 2 3 2 2 3 2 2 1 1 2 2 2 2 1 2 3 4 5
4 3 3 3 3 3 3 3 3 5 6 6 7 7 6 6 7 7 6 5 6 5 5 5 4 4 5 4 3 3 3 3 3 2 2 3 2 2 2 2 3 2 1 2 2 3 3 3 3
2 2 2 2 2 3 2 1 3 4 6 6 6 6 6 6 5 6 6 5 5 5 6 5 4 4 5 5 4 3 2 3 3 2 2 3 3 3 3 3 2 2 2 3 3 3 3 3 3
4 4 2 3 3 3 2 1 4 6 5 5 5 6 6 6 5 5 6 5 5 5 6 5 4 4 5 5 3 2 3 3 2 2 2 2 3 4 3 2 2 2 3 2 2 2 3 3 3
5 3 3 3 4 3 3 1 4 5 4 4 5 6 7 7 6 5 6 5 4 4 6 5 4 4 5 4 3 3 3 3 2 2 2 3 3 4 3 2 1 3 2 2 2 3 2 3 3
3 1 2 2 2 2 2 2 3 4 4 4 5 5 6 7 7 6 6 5 4 4 5 5 4 4 5 3 3 3 3 2 2 2 3 3 3 4 3 2 2 3 2 2 2 2 2 2 2
1 2 0 2 1 1 1 1 2 4 4 4 5 6 6 7 8 8 7 6 5 4 4 6 4 4 4 2 2 2 2 1 2 2 3 2 2 3 3 2 3 3 2 2 2 2 2 1 2
3 2 1 1 1 1 1 2 3 3 3 3 3 5 7 8 7 7 8 6 6 4 3 5 5 4 5 2 2 2 2 1 2 1 1 1 2 2 3 2 2 2 2 2 2 2 1 0 0
3 2 1 1 1 4 4 3 3 4 3 3 2 3 5 8 8 8 7 6 5 4 3 4 5 5 5 4 3 2 2 2 1 1 1 1 2 2 2 3 2 2 2 2 1 2 1 1 1
3 1 2 3 5 4 4 2 2 4 4 4 3 3 4 6 7 8 8 6 5 4 3 4 5 5 5 4 3 2 2 1 1 1 1 1 2 2 2 2 2 2 2 2 1 2 0 1 0
2 1 3 5 6 6 6 4 2 6 5 4 4 4 4 6 7 8 8 7 5 5 3 3 5 5 5 3 3 2 1 1 1 1 1 2 2 2 2 1 1 1 1 2 1 1 0 0 0
1 3 6 6 5 6 6 4 1 3 4 4 4 4 4 6 7 7 8 7 6 5 4 3 4 5 4 3 3 2 2 2 2 2 1 1 1 1 2 1 0 1 1 1 1 1 1 1 1
5 4 3 5 5 4 3 2 2 5 5 5 5 5 5 6 7 7 7 7 6 6 5 3 4 4 4 2 2 3 2 1 2 2 2 1 1 1 1 1 0 1 1 1 1 1 0 1 1
6 7 4 3 2 0 1 2 4 7 6 5 5 5 7 6 7 7 7 6 6 6 5 4 4 4 4 3 2 2 2 1 1 1 2 2 1 1 2 1 1 1 1 1 1 1 0 1 0
6 6 7 6 5 3 2 4 5 6 6 5 6 5 5 6 7 7 7 6 6 6 5 4 4 4 4 3 2 2 2 2 2 1 1 2 1 1 2 2 1 2 1 1 1 0 1 0 1
6 6 4 3 3 3 3 4 4 6 6 4 4 5 5 6 6 7 7 6 6 6 5 4 3 4 4 3 2 2 1 2 1 1 1 2 1 1 2 1 1 2 2 2 2 1 1 1 1
6 7 5 4 3 2 2 2 6 7 6 5 4 4 5 5 6 6 5 6 6 6 5 4 3 3 3 3 2 2 2 2 2 1 1 2 2 2 2 2 1 1 2 3 2 1 0 0 1
4 6 6 4 4 3 2 1 4 6 6 5 4 4 4 5 5 5 5 5 5 5 5 5 4 3 3 3 3 2 2 2 2 2 2 2 1 1 2 2 2 1 1 1 2 1 1 1 1
Wind_Direction
257 243 243 251 267 138 64 58 57 49 53 49 51 62 66 52 47 78 90 60 79 90 92 87 78 76 72 70 72 75 75 75 75 77 76 73 72 74 73 75 78 77 74 71 68 70 73 73 74
275 265 264 241 281 76 68 62 63 58 58 66 64 65 71 63 66 89 89 69 85 92 87 82 83 79 75 73 74 75 78 80 80 77 78 79 76 77 79 77 79 79 79 77 74 72 71 71 72
266 269 265 269 42 58 73 67 73 70 61 62 70 62 54 59 66 80 101 95 85 88 89 87 86 82 79 76 76 76 79 79 82 82 79 80 80 78 77 77 78 79 79 79 80 77 74 69 67
266 260 248 64 69 64 75 80 84 76 63 62 72 74 68 50 67 96 107 96 91 94 98 97 93 88 85 83 81 79 80 85 83 84 82 84 84 79 77 77 77 78 77 78 82 81 78 72 67
247 258 108 82 75 72 74 74 70 71 64 68 77 88 83 76 85 100 98 95 97 98 102 107 103 96 92 90 88 85 84 88 86 85 84 85 89 87 82 82 82 80 81 82 82 82 79 75 67
270 252 89 87 84 75 67 62 66 75 73 77 89 97 94 104 98 91 91 96 99 107 112 112 110 105 100 99 97 94 92 92 91 90 88 88 94 95 88 87 86 85 85 86 85 84 81 74 68
275 333 94 100 93 76 65 57 58 67 63 58 77 96 110 112 112 106 98 94 96 101 113 125 132 122 113 107 106 107 104 104 103 101 99 98 100 101 94 96 96 92 90 91 91 88 84 80 74
286 341 68 82 88 78 67 67 62 65 65 59 62 90 115 125 127 118 112 110 111 105 105 117 131 134 133 127 122 122 123 124 120 118 119 117 113 108 105 100 98 99 96 96 97 96 92 86 77
272 62 67 70 82 92 86 78 78 85 85 76 72 83 109 128 133 132 123 109 100 105 112 116 125 126 126 129 133 144 142 141 139 143 145 142 134 119 107 102 108 105 103 103 105 108 107 103 101
63 72 74 79 86 98 93 83 75 78 85 92 98 101 116 134 141 138 127 118 116 117 112 115 119 119 114 112 126 141 133 141 147 130 136 134 106 104 107 116 120 118 115 120 127 130 127 131 129
73 79 77 79 83 88 93 86 80 74 78 90 109 117 127 136 136 123 112 105 109 106 93 95 97 106 110 107 106 98 100 113 100 100 102 100 103 115 121 141 140 138 134 124 124 135 109 96 93
82 75 77 84 79 78 81 80 77 77 81 87 101 120 127 128 123 120 113 108 107 97 96 93 96 103 101 101 107 120 106 96 86 65 93 89 81 84 102 122 135 129 105 89 81 74 69 63 75
88 85 86 98 110 93 84 88 89 96 100 105 112 123 132 134 126 117 113 113 107 103 105 92 85 90 98 99 119 111 103 98 101 72 75 96 95 103 99 94 86 90 98 97 81 72 66 53 55
98 93 93 101 110 114 104 99 114 122 128 123 123 130 131 121 122 123 119 115 116 115 100 86 81 89 100 109 104 96 103 99 87 75 85 94 91 92 83 82 78 69 75 85 93 95 82 68 64
141 156 138 136 139 119 113 135 133 132 141 140 137 134 131 126 127 122 123 123 121 120 110 102 91 86 85 80 74 80 91 98 84 65 54 94 95 85 76 74 78 74 69 69 76 87 88 91 83
211 211 179 149 153 145 169 137 129 141 153 146 149 143 142 136 134 125 121 118 113 112 107 103 94 87 80 81 84 77 78 79 74 73 45 60 85 86 77 72 65 72 71 73 82 82 76 76 74
222 210 155 147 149 159 179 174 134 147 158 157 160 154 153 150 145 133 119 115 112 111 113 116 104 95 87 79 83 70 79 83 80 70 56 46 59 82 81 72 74 79 72 68 73 71 74 81 82
217 187 151 132 149 181 178 174 144 160 171 170 165 165 160 154 149 140 129 127 120 113 114 109 106 105 99 80 76 71 56 62 72 67 69 53 46 71 81 75 72 77 73 70 75 86 85 93 105
250 234 199 104 172 218 230 195 178 171 174 181 171 174 167 151 150 144 140 139 135 129 127 124 134 115 105 90 87 90 80 64 66 68 77 82 77 83 81 72 64 67 68 78 95 96 91 89 105
261 244 189 140 160 271 248 252 207 171 180 182 184 175 165 155 150 148 150 148 140 139 136 129 121 113 112 109 99 108 108 94 87 75 80 79 89 92 110 101 92 88 79 60 75 99 87 87 130
248 260 254 258 278 260 259 253 193 166 155 148 153 155 150 154 155 149 146 136 126 127 131 124 124 119 113 102 73 77 74 61 77 103 87 63 77 71 73 90 97 106 114 108 109 104 108 118 311
245 288 271 257 255 251 230 276 214 165 152 152 154 157 153 149 149 147 140 134 139 138 134 126 121 112 103 102 98 108 113 112 138 146 147 144 117 109 97 88 90 105 107 123 130 107 82 99 340
318 342 269 264 268 268 244 243 225 152 156 152 152 152 149 142 143 143 139 139 140 127 112 106 107 107 104 111 117 107 103 129 127 111 120 114 103 109 118 104 81 85 111 122 104 104 96 106 79
252 265 252 242 252 257 238 225 188 145 141 142 136 137 137 138 141 140 134 134 133 122 112 104 110 109 116 131 137 148 148 156 147 138 127 114 128 136 127 138 151 123 104 106 130 142 171 158 94
211 233 244 220 214 229 180 184 117 103 102 107 125 132 136 134 137 135 135 141 138 134 132 131 123 125 137 158 170 164 167 175 150 143 145 148 144 134 150 142 147 131 128 134 117 124 210 155 148
229 233 247 274 269 174 162 166 114 103 96 95 103 116 128 132 134 137 139 140 141 139 143 151 146 145 150 170 194 163 155 130 109 122 141 152 134 147 154 139 118 106 106 100 92 85 69 52 105
252 238 266 288 297 291 182 129 121 117 115 102 99 103 117 130 134 137 139 142 143 144 152 158 154 157 162 178 183 164 160 137 130 161 133 118 125 151 129 135 128 97 84 81 102 107 111 47 66
274 288 270 255 274 265 207 184 154 133 115 100 108 110 115 129 134 140 143 146 147 147 154 164 167 169 166 173 181 169 156 123 116 133 119 128 128 111 106 115 128 134 129 102 74 41 35 55 100
226 243 255 254 250 272 294 61 106 120 113 110 102 103 114 124 133 134 138 146 147 148 151 161 172 172 166 172 173 175 165 150 157 155 143 152 165 155 157 164 144 128 142 143 136 141 96 38 70
238 251 263 265 269 260 261 128 104 108 106 99 92 94 102 117 123 129 135 144 150 156 161 171 175 171 168 168 169 184 163 165 168 163 182 184 181 171 160 155 147 139 118 131 139 156 136 71 59